This demonstration page uses our WeatherBlox Daily Observations layout. Learn more.

Left ArrowRight Arrow

39.51506, -84.39828

Hourly Observations for April 29, 2017

Temp ( °F °C ) Dew Point ( °F °C ) Humidity (%) Winds ( mph kmh ) Pressure ( in mb ) Visibility ( mi km ) Precip ( " mm )
12:15 am 00:15 Cloudy with Light Rain 60 15.5 54 12.4 82 82 NE 6 9 29.94 1014 10 16 0.00 0.00
12:35 am 00:35 Cloudy with Light Rain 60 15.8 55 12.6 81 81 Calm 29.94 1014 10 16 0.00 0.00
12:55 am 00:55 Cloudy with Heavy Rain 60 15.6 55 12.5 82 82 NNE 5 7 29.91 1013 5 8 0.00 0.00
1:15 am 01:15 Cloudy with Light Rain 60 15.8 55 12.6 81 81 E 3 6 29.91 1013 10 16 0.00 0.00
1:35 am 01:35 Cloudy with Light Rain 61 15.9 55 12.7 81 81 NNE 5 7 29.91 1013 10 16 0.00 0.00
1:55 am 01:55 Cloudy with Drizzle 60 15.6 55 12.6 82 82 NNE 5 7 29.91 1013 10 16 0.00 0.00
2:15 am 02:15 Cloudy with Light Rain 61 16 55 13 83 83 NE 3 6 29.91 1013 10 16 0.00 0.00
2:35 am 02:35 Cloudy with Rain 61 15.9 55 12.9 83 83 Calm 29.91 1013 10 16 0.00 0.00
2:55 am 02:55 Mostly Cloudy with Rain 61 16 55 13 83 83 Calm 29.94 1014 7 11 0.00 0.00
3:15 am 03:15 Mostly Cloudy with Rain 61 16 55 13 83 83 SW 6 9 29.94 1014 7 11 0.00 0.00
3:35 am 03:35 Cloudy with Light Rain 61 16 55 13 83 83 SE 6 9 29.91 1013 5 8 0.00 0.00
3:55 am 03:55 Cloudy with Rain 61 16 56 13.1 83 83 Calm 29.91 1013 5 8 0.00 0.00
4:15 am 04:15 Cloudy with Light Rain 62 16.6 57 13.8 84 84 S 9 15 29.94 1014 5 8 0.00 0.00
4:35 am 04:35 Cloudy with Rain 63 17 58 14.2 84 84 Calm 29.91 1013 5 8 0.00 0.00
4:55 am 04:55 Cloudy with Light Rain 63 17 57 14.1 83 83 Calm 29.91 1013 7 11 0.00 0.00
5:15 am 05:15 Cloudy with Light Rain 63 17 57 14.1 83 83 Calm 29.88 1012 7 11 0.00 0.00
5:35 am 05:35 Mostly Cloudy 63 17.1 58 14.2 83 83 NNW 3 6 29.88 1012 7 11 0.00 0.00
5:55 am 05:55 Hazy 63 17 58 14.2 84 84 SW 7 11 29.94 1014 5 8 0.00 0.00
6:15 am 06:15 Mostly Cloudy 64 18 60 15.3 84 84 SSW 6 9 29.97 1015 10 16 0.00 0.00
6:35 am 06:35 Cloudy 66 18.9 61 15.9 83 83 SSE 3 6 29.97 1015 10 16 0.00 0.00
6:55 am 06:55 Mostly Cloudy 64 18 59 15 83 83 SSE 3 6 29.94 1014 10 16 0.00 0.00
7:15 am 07:15 Mostly Cloudy with Light Rain 64 18 59 15 83 83 SW 3 6 29.97 1015 7 11 0.00 0.00
7:35 am 07:35 Cloudy with Rain 64 18 59 15.1 83 83 Calm 30.00 1016 4 6 0.00 0.00
7:55 am 07:55 Cloudy with Heavy Rain 64 18 59 15.2 84 84 E 3 6 29.97 1015 2 3 0.00 0.00
8:15 am 08:15 Cloudy with Rain 64 18 60 15.5 85 85 NNE 6 9 29.97 1015 4 6 0.00 0.00
8:35 am 08:35 Cloudy with Heavy Rain 64 18 60 15.5 85 85 NW 7 11 30.00 1016 2 3 0.00 0.00
8:55 am 08:55 Cloudy with Heavy Rain 64 18 60 15.5 85 85 NNW 13 20 29.97 1015 1 2 0.00 0.00
9:15 am 09:15 Cloudy with Heavy Rain 65 18.2 60 15.4 84 84 WSW 3 6 30.06 1018 2 3 0.00 0.00
9:35 am 09:35 Cloudy with Rain 64 18 59 15.2 84 84 NNE 15 24 29.97 1015 7 11 0.00 0.00
9:55 am 09:55 Cloudy with Rain 64 18 60 15.3 84 84 SW 7 11 30.03 1017 10 16 0.00 0.00
10:15 am 10:15 Cloudy with Rain 64 18 60 15.4 85 85 SSE 3 6 30.03 1017 5 8 0.00 0.00
10:35 am 10:35 Cloudy with Rain 63 17.3 58 14.5 84 84 SE 3 6 30.06 1018 7 11 0.00 0.00
10:55 am 10:55 Cloudy with Rain 64 18 59 15.1 83 83 SW 12 19 30.15 1021 7 11 0.00 0.00
11:15 am 11:15 Cloudy with Light Rain 64 18 59 15 83 83 ESE 3 6 30.06 1018 10 16 0.00 0.00
11:35 am 11:35 Mostly Cloudy 64 18 59 15 83 83 Calm 30.09 1019 10 16 0.00 0.00
11:55 am 11:55 Cloudy 67 19.5 61 16.2 81 81 Calm 30.09 1019 10 16 0.00 0.00
12:15 pm 12:15 Mostly Cloudy 67 19.5 61 16.3 82 82 SW 3 6 30.09 1019 10 16 0.00 0.00
12:35 pm 12:35 Mostly Cloudy 69 20.8 64 17.5 82 82 Calm 30.09 1019 10 16 0.00 0.00
12:55 pm 12:55 Partly Cloudy 69 20.8 63 17.3 80 80 SSE 3 6 30.09 1019 10 16 0.00 0.00
1:15 pm 13:15 Mostly Cloudy 69 20.8 63 17 79 79 ESE 6 9 30.06 1018 10 16 0.00 0.00
1:35 pm 13:35 Partly Cloudy 72 22.4 65 18.3 78 78 SE 6 9 30.06 1018 10 16 0.00 0.00
1:55 pm 13:55 Sunny 74 23.6 65 18.6 74 74 SSE 3 6 30.06 1018 10 16 0.00 0.00
2:15 pm 14:15 Sunny 74 23.6 64 17.7 70 70 SSE 3 6 30.06 1018 10 16 0.00 0.00
2:35 pm 14:35 Partly Cloudy 74 23.6 62 16.5 65 65 SSE 5 7 30.06 1018 10 16 0.00 0.00
2:55 pm 14:55 Sunny 77 25.1 62 16.9 60 60 E 8 13 30.03 1017 10 16 0.00 0.00
3:15 pm 15:15 Sunny 77 25.1 60 15.5 55 55 E 6 9 30.03 1017 10 16 0.00 0.00
3:35 pm 15:35 Sunny 77 25.1 60 15.5 55 55 E 6 9 30.03 1017 10 16 0.00 0.00
3:55 pm 15:55 Sunny 77 25.1 60 15.4 55 55 SE 7 11 30.03 1017 10 16 0.00 0.00
4:15 pm 16:15 Sunny 77 25.1 59 15.2 54 54 SE 7 11 30.00 1016 10 16 0.00 0.00
4:35 pm 16:35 Sunny 77 25.1 59 15.1 54 54 SE 7 11 30.00 1016 10 16 0.00 0.00
4:55 pm 16:55 Sunny 80 26.5 60 15.8 52 52 ESE 7 11 30.00 1016 10 16 0.00 0.00
5:15 pm 17:15 Sunny 80 26.5 58 14.7 48 48 ESE 7 11 30.00 1016 10 16 0.00 0.00
5:35 pm 17:35 Sunny 80 26.5 59 15.1 50 50 ESE 7 11 30.00 1016 10 16 0.00 0.00
5:55 pm 17:55 Sunny 80 26.5 59 15.2 50 50 ESE 6 9 30.00 1016 10 16 0.00 0.00
6:15 pm 18:15 Sunny 80 26.5 59 15.2 50 50 E 6 9 29.97 1015 10 16 0.00 0.00
6:35 pm 18:35 Sunny 80 26.5 60 15.5 51 51 E 3 6 29.97 1015 10 16 0.00 0.00
6:55 pm 18:55 Sunny 80 26.4 61 16.1 53 53 E 6 9 29.97 1015 10 16 0.00 0.00
7:15 pm 19:15 Sunny 77 25.1 60 15.8 56 56 ENE 6 9 29.94 1014 10 16 0.00 0.00
7:35 pm 19:35 Sunny 74 23.6 62 16.6 65 65 NE 5 7 29.94 1014 10 16 0.00 0.00
7:55 pm 19:55 Sunny 74 23.6 63 17.4 68 68 NNE 7 11 29.94 1014 10 16 0.00 0.00
8:15 pm 20:15 Sunny 74 23.6 64 17.6 69 69 NE 6 9 29.94 1014 10 16 0.00 0.00
8:35 pm 20:35 Partly Cloudy 73 22.7 64 17.8 74 74 N 3 6 29.94 1014 10 16 0.00 0.00
8:55 pm 20:55 Mostly Cloudy 74 23.6 65 18.1 71 71 NNE 6 9 29.97 1015 10 16 0.00 0.00
9:15 pm 21:15 Cloudy 74 23.6 64 17.5 69 69 N 10 17 29.97 1015 10 16 0.00 0.00
9:35 pm 21:35 Cloudy 69 20.8 61 16 74 74 N 6 9 29.97 1015 10 16 0.00 0.00
9:55 pm 21:55 Cloudy 69 20.8 61 16.3 76 76 N 7 11 29.97 1015 10 16 0.00 0.00
10:15 pm 22:15 Mostly Cloudy 69 20.8 61 16.1 75 75 NNE 9 15 29.97 1015 10 16 0.00 0.00
10:35 pm 22:35 Partly Cloudy 69 20.8 62 16.6 77 77 NE 12 19 29.97 1015 10 16 0.00 0.00
10:55 pm 22:55 Partly Cloudy 65 18.1 57 14 77 77 NNE 10 17 29.97 1015 10 16 0.00 0.00
11:15 pm 23:15 Mostly Cloudy 64 18 57 14 78 78 NE 10 17 29.94 1014 10 16 0.00 0.00
11:35 pm 23:35 Mostly Cloudy 64 17.6 56 13.6 78 78 NNE 10 17 29.94 1014 10 16 0.00 0.00
11:55 pm 23:55 Mostly Cloudy with Light Rain 63 17 56 13.1 78 78 N 5 7 29.97 1015 10 16 0.00 0.00

Powered by AerisWeather